This is the latest recevied weather packets stored in our database for station/object OK1KZE-6. If no packets are shown the sender has not sent any weather packets the latest 10 day(s).
| Time | Temp. | Humidity | Pressure | Rain* | Wind** | Luminosity | Snow |
|---|---|---|---|---|---|---|---|
| 1777554307 | 11.11° C | 34% | 1031.4 hPa | - | - | - | - |
| 1777554009 | 11.67° C | 33% | 1031.2 hPa | - | - | - | - |
| 1777553709 | 11.67° C | 34% | 1031.2 hPa | - | - | - | - |
| 1777553408 | 11.67° C | 32% | 1031.4 hPa | - | - | - | - |
| 1777553107 | 11.67° C | 33% | 1031.2 hPa | - | - | - | - |
| 1777552808 | 10.56° C | 33% | 1031.3 hPa | - | - | - | - |
| 1777552508 | 11.11° C | 33% | 1031.3 hPa | - | - | - | - |
| 1777552208 | 11.11° C | 33% | 1031.3 hPa | - | - | - | - |
| 1777551908 | 10.56° C | 33% | 1031.6 hPa | - | - | - | - |
| 1777551607 | 10° C | 33% | 1031.5 hPa | - | - | - | - |
| 1777551308 | 10° C | 32% | 1031.5 hPa | - | - | - | - |
| 1777551008 | 10.56° C | 33% | 1031.6 hPa | - | - | - | - |
| 1777550708 | 10.56° C | 32% | 1031.7 hPa | - | - | - | - |
| 1777550408 | 10° C | 33% | 1031.7 hPa | - | - | - | - |
| 1777550107 | 10.56° C | 33% | 1031.6 hPa | - | - | - | - |
| 1777549809 | 10° C | 33% | 1031.7 hPa | - | - | - | - |
| 1777549507 | 11.11° C | 31% | 1031.6 hPa | - | - | - | - |
| 1777549208 | 10° C | 32% | 1031.6 hPa | - | - | - | - |
| 1777548907 | 9.44° C | 32% | 1031.7 hPa | - | - | - | - |
| 1777548608 | 9.44° C | 32% | 1031.7 hPa | - | - | - | - |
| 1777548308 | 10.56° C | 32% | 1031.8 hPa | - | - | - | - |
| 1777548008 | 9.44° C | 34% | 1031.8 hPa | - | - | - | - |
| 1777547707 | 9.44° C | 34% | 1031.8 hPa | - | - | - | - |
| 1777547407 | 8.89° C | 34% | 1031.8 hPa | - | - | - | - |
| 1777547108 | 10° C | 32% | 1031.8 hPa | - | - | - | - |
* Rain since midnight (hover to see other rain measurements)
** Current wind speed in m/s (hover to see current wind gust speed)